TimeCDT,TemperatureF,Dew PointF,Humidity,Sea Level PressureIn,VisibilityMPH,Wind Direction,Wind SpeedMPH,Gust SpeedMPH,PrecipitationIn,Events,Conditions,WindDirDegrees,DateUTC
12:56 AM,48.9,36.9,63,30.15,10.0,NNE,4.6,-,N/A,,Clear,20,2013-04-02 05:56:00
1:56 AM,46.9,36.0,66,30.16,10.0,NNE,3.5,-,N/A,,Clear,30,2013-04-02 06:56:00
2:56 AM,46.9,36.9,68,30.16,10.0,NE,4.6,-,N/A,,Clear,40,2013-04-02 07:56:00
3:56 AM,45.9,36.9,71,30.19,10.0,NNE,6.9,-,N/A,,Clear,20,2013-04-02 08:56:00
4:56 AM,43.0,36.0,76,30.21,10.0,NNE,5.8,-,N/A,,Clear,30,2013-04-02 09:56:00
5:56 AM,41.9,32.0,68,30.22,10.0,NNE,8.1,-,N/A,,Clear,30,2013-04-02 10:56:00
6:56 AM,41.0,30.0,65,30.24,10.0,NE,9.2,-,N/A,,Clear,40,2013-04-02 11:56:00
7:56 AM,43.0,28.0,56,30.25,10.0,NE,9.2,-,N/A,,Clear,40,2013-04-02 12:56:00
8:56 AM,45.9,26.1,46,30.27,10.0,NE,11.5,18.4,N/A,,Scattered Clouds,40,2013-04-02 13:56:00
9:56 AM,47.8,26.1,43,30.27,10.0,NNE,11.5,18.4,N/A,,Partly Cloudy,20,2013-04-02 14:56:00
10:56 AM,50.9,26.1,38,30.28,10.0,NE,9.2,-,N/A,,Mostly Cloudy,50,2013-04-02 15:56:00
11:56 AM,52.0,28.0,40,30.27,10.0,North,10.4,-,N/A,,Mostly Cloudy,360,2013-04-02 16:56:00
12:56 PM,54.0,28.0,37,30.25,10.0,ENE,8.1,-,N/A,,Mostly Cloudy,60,2013-04-02 17:56:00
1:56 PM,54.9,30.0,39,30.25,10.0,NNW,10.4,-,N/A,,Scattered Clouds,340,2013-04-02 18:56:00
2:56 PM,56.8,29.1,35,30.22,10.0,NE,8.1,-,N/A,,Overcast,40,2013-04-02 19:56:00
3:56 PM,56.8,29.1,35,30.21,10.0,ENE,5.8,-,N/A,,Overcast,60,2013-04-02 20:56:00
4:56 PM,54.9,29.1,37,30.22,10.0,North,11.5,-,N/A,,Mostly Cloudy,360,2013-04-02 21:56:00
5:56 PM,50.9,27.1,40,30.22,10.0,North,8.1,-,N/A,,Partly Cloudy,10,2013-04-02 22:56:00
6:56 PM,47.8,24.1,39,30.22,10.0,NNE,8.1,-,N/A,,Clear,30,2013-04-02 23:56:00
7:56 PM,46.9,28.0,48,30.23,10.0,North,5.8,-,N/A,,Scattered Clouds,10,2013-04-03 00:56:00
8:56 PM,45.9,29.1,52,30.24,10.0,NNE,5.8,-,N/A,,Mostly Cloudy,20,2013-04-03 01:56:00
9:56 PM,45.0,28.0,52,30.24,10.0,NE,5.8,-,N/A,,Clear,40,2013-04-03 02:56:00
10:56 PM,45.0,28.0,52,30.25,10.0,NE,8.1,-,N/A,,Scattered Clouds,40,2013-04-03 03:56:00
11:56 PM,43.9,27.1,52,30.22,10.0,NE,9.2,-,N/A,,Clear,40,2013-04-03 04:56:00